Wind_Speed
17 11 7 6 12 10 12 6 4 3 15 17 17 18 16 16 16 16 18 17 23 23 23 22 18 14 12 2 5 10 10 11 10 5 3 6 9 12 13 15 17 17 19
15 10 6 7 12 12 13 10 7 4 6 19 18 21 14 17 16 20 19 18 15 14 15 11 14 8 8 7 9 12 16 14 13 10 10 12 13 15 16 15 17 19 22
14 10 7 7 12 13 10 15 11 7 0 14 27 22 19 17 17 16 17 18 16 8 9 15 18 14 6 9 11 14 13 17 18 14 13 13 15 17 16 16 18 22 27
15 11 10 6 13 13 11 17 13 10 6 9 26 24 22 18 16 13 15 19 15 6 9 8 5 6 6 9 11 10 11 15 15 15 14 15 17 15 17 20 24 28 31
18 14 12 8 13 13 12 16 17 12 8 11 18 27 26 22 16 17 9 21 17 11 8 9 5 3 5 9 9 8 9 12 14 12 12 13 15 17 21 25 27 32 35
20 17 14 11 14 14 12 14 21 17 14 11 12 21 25 22 20 13 15 20 22 18 14 9 4 3 5 6 7 9 11 9 10 11 14 18 20 23 24 28 31 33 31
22 20 16 14 15 15 13 14 24 22 17 13 14 17 14 17 15 18 17 17 15 14 9 7 8 8 8 11 6 8 9 12 14 16 19 21 24 27 30 32 32 31 23
25 23 20 16 16 19 14 15 23 26 23 18 16 19 13 12 11 10 10 11 7 8 6 12 13 12 10 8 8 13 16 15 18 20 23 25 26 27 27 25 24 19 18
28 27 23 20 17 21 17 16 22 27 27 23 22 24 17 14 17 14 11 13 15 15 14 10 13 15 11 15 15 19 19 23 25 25 26 26 25 22 21 17 16 19 21
31 27 27 23 19 20 21 19 20 26 28 30 34 31 33 27 22 13 18 17 18 17 18 16 20 17 19 20 20 21 25 28 27 27 28 21 17 15 15 18 20 24 26
31 29 29 28 23 22 21 23 21 24 28 30 27 29 30 34 29 27 23 20 21 17 17 19 22 20 24 23 25 25 27 26 24 24 19 17 14 16 19 22 26 29 31
37 33 29 31 28 24 22 24 24 23 25 33 33 31 30 32 30 28 25 21 20 22 21 22 24 24 27 27 28 29 27 26 21 16 14 14 17 20 24 27 29 31 34
38 35 33 33 31 27 24 23 25 25 24 22 38 37 35 32 33 32 29 26 25 25 24 26 28 26 27 27 28 27 22 18 17 16 17 19 22 26 28 29 32 34 27
39 36 37 32 34 32 27 25 23 28 27 22 20 44 40 37 36 37 33 34 32 31 29 27 28 28 26 22 18 19 17 16 18 19 20 24 28 30 31 33 34 31 33
47 40 40 32 37 35 29 27 23 26 28 26 21 21 41 44 43 41 39 36 36 33 32 32 27 20 16 15 16 15 17 20 22 24 27 30 31 33 34 36 39 35 34
43 47 43 36 38 39 34 29 27 26 27 27 24 20 20 30 45 47 43 35 33 34 31 23 17 17 18 19 20 21 23 25 27 30 33 33 34 37 37 42 40 39 37
44 48 45 42 37 41 36 32 28 30 27 26 27 23 21 20 24 34 37 33 28 23 21 21 21 22 23 24 25 26 28 30 32 33 34 35 37 38 43 43 42 40 42
53 51 46 46 43 39 42 36 33 28 30 29 27 28 27 24 24 24 25 24 24 23 24 25 26 26 26 27 26 22 22 26 30 31 34 37 39 41 42 42 44 45 50
53 56 50 47 46 43 44 40 40 35 32 28 31 31 29 30 31 29 30 29 28 29 29 29 30 29 26 23 22 25 27 31 34 34 35 37 41 42 43 45 46 49 50
58 54 56 49 48 42 41 45 43 40 34 29 28 32 32 33 34 33 35 34 35 33 32 29 28 28 28 29 31 33 34 34 38 39 40 42 46 46 47 49 50 53 56
61 56 54 53 49 49 44 48 46 46 40 33 29 29 30 31 34 36 38 38 37 36 35 34 32 32 33 34 34 35 38 40 42 44 46 44 47 49 50 53 55 56 60
66 62 56 59 55 50 50 46 47 47 44 40 35 32 32 35 34 31 35 35 33 34 34 35 34 34 34 38 42 40 41 43 47 48 53 54 53 54 54 59 60 57 57
58 62 64 59 58 56 54 53 42 39 40 47 45 41 35 38 38 36 38 37 36 38 40 40 40 43 42 42 43 47 48 51 51 51 54 56 60 62 61 62 54 51 57
64 64 64 68 63 59 56 56 54 46 43 42 42 46 40 42 42 40 42 42 41 42 41 44 47 47 49 50 52 55 55 56 55 56 58 60 64 61 61 61 60 62 66
65 67 65 63 66 66 58 58 58 56 51 46 49 42 38 45 46 45 47 47 48 47 45 46 48 51 52 56 59 60 60 62 62 61 60 63 62 62 62 66 63 66 70
72 68 65 60 64 66 62 60 58 56 58 55 55 48 43 41 46 47 48 51 53 53 52 52 55 56 59 62 64 62 63 62 63 61 64 66 69 69 66 63 66 69 73
Wind_Direction
258 258 275 298 244 216 197 181 157 117 183 173 174 182 156 168 173 175 176 190 161 169 174 182 180 198 191 299 294 276 249 221 233 226 228 250 254 259 272 272 277 273 278
250 245 262 291 244 219 205 188 167 138 179 200 175 169 164 149 163 196 201 197 204 184 161 142 198 232 295 309 293 258 259 218 237 261 268 274 271 271 271 263 274 281 286
238 238 253 275 241 225 203 203 186 161 38 205 191 182 186 181 169 195 204 207 204 201 212 224 235 245 266 251 257 248 264 248 255 264 280 283 272 266 257 266 279 290 295
224 227 240 248 238 220 210 208 186 171 149 182 196 192 204 211 188 180 193 198 180 120 154 166 189 194 237 247 252 248 246 253 263 278 282 273 267 264 268 282 293 296 299
220 222 235 234 234 220 213 213 194 183 185 165 182 201 206 212 202 198 201 192 196 202 169 171 190 229 244 257 259 251 252 257 264 261 253 262 278 291 294 296 298 297 298
220 221 233 227 228 217 217 211 195 191 189 161 170 189 206 215 214 209 186 201 207 217 222 232 224 258 240 262 254 254 257 251 256 276 290 289 293 299 296 299 297 297 299
214 219 231 227 220 217 218 201 196 190 188 178 158 161 170 194 190 178 165 169 185 193 206 228 264 283 260 246 253 275 280 276 283 286 291 296 296 295 294 291 292 294 296
207 220 226 227 215 222 217 198 199 197 200 194 177 166 179 193 172 178 174 169 182 215 234 255 237 241 242 249 252 263 268 285 284 288 290 293 292 289 287 287 289 293 305
206 218 223 229 218 222 216 205 203 205 204 202 198 176 188 222 207 199 204 194 219 245 232 229 237 241 250 261 264 269 275 277 284 285 292 294 296 287 286 287 299 307 307
211 217 219 225 220 228 222 209 208 211 208 211 208 199 186 200 227 230 234 238 246 255 256 254 257 264 271 267 268 271 279 288 285 288 292 288 286 288 299 310 308 305 305
214 220 225 225 222 227 236 220 210 212 217 219 221 221 211 197 202 215 221 231 243 253 260 263 261 261 269 275 279 284 283 288 289 287 278 281 295 303 307 305 304 305 305
214 223 226 226 222 228 236 230 219 213 213 223 230 221 223 215 211 218 228 232 237 246 254 261 266 261 272 276 278 284 280 278 273 267 277 286 290 297 298 299 299 299 300
216 225 222 223 222 225 232 235 227 225 217 221 224 230 225 220 220 226 238 237 246 252 255 257 263 264 271 275 279 279 275 264 256 259 271 287 296 294 293 296 300 299 296
221 222 218 223 224 224 230 238 240 229 223 223 230 224 231 231 229 229 232 236 242 250 252 259 262 267 267 272 269 263 256 258 267 278 287 292 292 294 298 298 304 301 300
225 219 218 221 227 225 227 236 241 232 228 222 228 232 231 231 234 235 242 247 246 251 254 261 263 259 250 249 256 257 260 273 280 286 288 291 291 293 293 295 297 296 299
218 226 224 219 226 224 225 234 234 230 231 223 225 232 235 232 236 240 242 244 244 256 254 250 248 247 252 259 265 272 277 280 286 288 287 287 286 290 293 302 300 297 292
221 221 231 218 223 225 222 227 231 230 230 231 227 226 236 239 238 237 240 241 238 234 240 243 244 250 258 266 275 279 283 287 285 283 285 289 291 291 296 298 298 296 297
224 217 229 215 221 227 225 222 224 229 230 233 232 231 232 235 234 225 226 228 233 239 246 253 257 260 264 270 276 283 288 288 288 291 294 294 294 297 300 301 300 299 303
219 220 223 221 218 224 230 223 226 231 233 236 232 236 235 237 238 236 239 238 243 248 250 255 258 264 268 270 270 273 279 284 287 290 293 299 298 296 302 299 301 305 309
220 218 219 222 222 229 235 229 228 231 234 240 238 242 237 245 241 241 244 246 247 249 253 257 256 256 261 265 272 279 283 288 296 294 299 301 304 304 302 303 301 303 309
225 220 221 219 226 223 230 233 224 228 233 235 243 247 245 249 250 245 246 249 250 253 256 258 258 265 269 269 278 280 285 287 291 295 297 298 300 301 303 304 305 305 305
226 225 222 225 223 223 219 231 234 234 232 236 239 239 244 249 250 252 254 252 253 257 261 268 266 271 272 276 275 274 283 289 292 292 299 300 301 303 304 306 304 306 304
218 225 223 222 225 221 222 219 222 240 247 238 240 241 236 248 251 256 264 257 262 264 263 266 269 272 273 271 274 280 282 284 286 289 294 298 299 300 300 303 307 308 308
222 221 226 225 226 227 228 224 221 224 232 247 246 244 247 248 247 252 256 264 269 269 268 268 269 272 273 272 275 279 280 283 285 289 295 298 298 298 298 301 302 305 309
222 224 224 229 224 227 225 231 229 228 230 233 239 242 253 249 253 254 260 262 264 263 268 271 276 279 285 282 279 280 281 283 284 287 291 296 303 302 300 301 303 306 308
223 225 229 228 228 229 227 228 229 231 232 236 240 237 246 250 255 256 254 258 262 263 267 274 280 282 286 285 282 281 281 282 284 290 293 295 300 302 302 304 304 306 309
Height
10847 10846 10846 10847 10849 10848 10848 10846 10847 10849 10850 10850 10849 10850 10852 10853 10855 10857 10859 10861 10864 10867 10870 10874 10876 10878 10879 10879 10879 10879 10881 10883 10884 10885 10887 10887 10887 10887 10886 10886 10886 10886 10885
10843 10842 10842 10844 10846 10846 10846 10846 10847 10848 10848 10849 10849 10851 10853 10856 10857 10859 10860 10862 10864 10865 10868 10871 10873 10874 10875 10876 10877 10878 10881 10882 10882 10883 10884 10884 10884 10884 10885 10885 10884 10883 10882
10838 10839 10840 10841 10844 10845 10844 10846 10847 10848 10846 10845 10848 10851 10854 10856 10857 10858 10861 10864 10867 10867 10869 10871 10873 10875 10875 10876 10877 10878 10878 10880 10880 10881 10882 10883 10883 10882 10882 10882 10881 10879 10877
10835 10836 10838 10839 10841 10843 10843 10845 10846 10847 10846 10845 10847 10851 10853 10855 10857 10859 10861 10863 10867 10869 10870 10872 10874 10874 10874 10875 10875 10876 10876 10877 10878 10880 10880 10880 10880 10879 10879 10879 10876 10875 10873
10833 10833 10836 10837 10839 10841 10842 10843 10845 10846 10847 10846 10846 10849 10850 10854 10856 10859 10862 10864 10866 10869 10871 10872 10873 10873 10873 10874 10874 10875 10876 10877 10877 10877 10877 10877 10877 10877 10876 10874 10872 10871 10868
10830 10830 10833 10835 10837 10839 10841 10841 10843 10845 10847 10847 10846 10847 10850 10853 10855 10859 10861 10864 10865 10868 10870 10871 10872 10872 10873 10873 10873 10875 10876 10875 10875 10875 10875 10875 10874 10873 10872 10869 10867 10865 10863
10827 10827 10831 10833 10834 10837 10839 10839 10842 10843 10846 10846 10846 10847 10849 10851 10854 10858 10860 10861 10864 10866 10868 10870 10870 10869 10870 10872 10872 10874 10873 10872 10873 10872 10871 10871 10869 10868 10866 10864 10862 10860 10858
10821 10824 10828 10830 10832 10834 10837 10837 10839 10842 10844 10847 10847 10847 10849 10851 10853 10856 10858 10860 10863 10865 10866 10868 10867 10867 10868 10871 10872 10869 10869 10871 10870 10869 10868 10867 10865 10863 10860 10858 10857 10855 10853
10815 10819 10824 10827 10829 10832 10834 10835 10837 10839 10842 10846 10847 10847 10851 10849 10851 10854 10857 10860 10862 10864 10866 10867 10864 10865 10867 10867 10868 10866 10868 10868 10867 10866 10864 10863 10860 10857 10856 10854 10853 10851 10849
10809 10814 10819 10824 10826 10829 10832 10833 10834 10836 10840 10842 10841 10845 10843 10848 10850 10852 10856 10858 10860 10861 10862 10864 10859 10863 10862 10861 10863 10865 10863 10863 10862 10860 10860 10858 10856 10854 10853 10852 10850 10848 10846
10803 10808 10813 10818 10822 10825 10828 10831 10832 10833 10836 10838 10842 10843 10844 10843 10845 10848 10851 10853 10856 10857 10859 10859 10857 10861 10857 10858 10859 10860 10859 10858 10857 10856 10856 10854 10853 10851 10850 10849 10847 10844 10842
10797 10802 10807 10813 10817 10821 10824 10827 10829 10830 10832 10835 10837 10839 10841 10843 10845 10847 10850 10851 10853 10854 10855 10855 10855 10857 10855 10854 10855 10855 10855 10854 10853 10852 10852 10850 10849 10848 10846 10844 10842 10839 10837
10791 10796 10802 10807 10812 10816 10819 10822 10825 10827 10829 10831 10833 10834 10837 10840 10842 10844 10846 10848 10848 10850 10850 10851 10851 10854 10852 10851 10851 10850 10849 10848 10848 10849 10848 10846 10845 10843 10842 10840 10837 10834 10831
10787 10791 10797 10802 10807 10811 10814 10817 10820 10823 10824 10826 10828 10831 10833 10835 10838 10839 10841 10842 10844 10845 10846 10847 10847 10849 10849 10848 10847 10846 10846 10846 10846 10846 10845 10843 10841 10839 10836 10834 10832 10828 10825
10780 10785 10791 10796 10801 10806 10809 10812 10815 10818 10820 10822 10824 10826 10828 10831 10834 10836 10838 10839 10840 10841 10842 10843 10843 10844 10844 10844 10844 10843 10843 10843 10843 10842 10840 10838 10837 10834 10832 10829 10827 10823 10820
10770 10779 10786 10790 10795 10800 10804 10807 10810 10813 10816 10818 10820 10822 10824 10825 10828 10830 10832 10835 10836 10838 10837 10839 10840 10840 10841 10841 10840 10840 10839 10839 10838 10836 10835 10834 10832 10829 10827 10824 10821 10818 10814
10765 10771 10778 10783 10788 10794 10798 10801 10805 10808 10811 10814 10817 10819 10821 10823 10823 10825 10828 10831 10832 10833 10834 10835 10837 10837 10838 10837 10837 10835 10835 10834 10834 10833 10830 10829 10826 10824 10822 10818 10816 10812 10808
10757 10763 10770 10775 10780 10788 10792 10795 10800 10803 10807 10810 10813 10816 10818 10820 10821 10824 10825 10827 10828 10830 10830 10829 10831 10832 10832 10832 10831 10830 10830 10829 10828 10827 10825 10822 10819 10817 10814 10811 10808 10805 10801
10747 10756 10762 10768 10774 10782 10786 10789 10794 10799 10803 10806 10809 10812 10815 10815 10817 10821 10821 10824 10824 10825 10827 10827 10825 10826 10827 10827 10826 10826 10825 10823 10821 10819 10817 10813 10811 10809 10807 10804 10801 10797 10793
10738 10748 10754 10762 10769 10775 10781 10785 10790 10795 10799 10803 10806 10809 10812 10812 10813 10815 10815 10817 10819 10821 10822 10823 10823 10821 10822 10821 10819 10818 10816 10814 10812 10811 10809 10806 10803 10800 10798 10795 10792 10788 10784
10733 10743 10745 10753 10760 10767 10773 10776 10780 10786 10792 10796 10800 10803 10807 10807 10811 10812 10811 10813 10814 10815 10816 10817 10817 10817 10817 10815 10812 10810 10808 10806 10805 10802 10801 10800 10797 10793 10790 10787 10784 10781 10774
10721 10729 10740 10746 10751 10757 10760 10767 10773 10779 10784 10788 10791 10793 10798 10798 10804 10808 10808 10810 10811 10811 10811 10811 10812 10811 10810 10809 10805 10803 10802 10800 10797 10795 10790 10789 10787 10786 10782 10778 10775 10772 10765
10711 10717 10725 10731 10737 10743 10748 10755 10763 10771 10776 10779 10780 10783 10790 10790 10795 10798 10798 10803 10806 10806 10806 10805 10804 10802 10801 10802 10799 10797 10796 10793 10791 10790 10788 10785 10779 10775 10772 10768 10763 10761 10755
10698 10703 10711 10719 10727 10733 10741 10747 10752 10757 10762 10767 10774 10779 10783 10783 10785 10789 10789 10791 10795 10797 10797 10797 10796 10796 10795 10794 10792 10789 10787 10784 10782 10780 10778 10775 10773 10770 10764 10758 10752 10749 10743
10685 10692 10698 10706 10715 10722 10733 10737 10744 10749 10751 10755 10762 10767 10772 10774 10773 10780 10780 10781 10784 10786 10787 10787 10786 10786 10787 10786 10784 10779 10777 10774 10773 10771 10768 10765 10760 10756 10754 10751 10744 10739 10730
10671 10678 10687 10697 10705 10714 10722 10729 10734 10740 10743 10747 10750 10755 10760 10765 10764 10768 10770 10770 10772 10775 10775 10776 10775 10775 10775 10774 10773 10771 10767 10765 10762 10760 10757 10755 10750 10746 10741 10738 10732 10726 10717